Regional Weather Roundup
Issued by NWS

Home | Current Version | Previous Version | Graphics & Text | Print | Product List | Glossary Off
Versions: 1 2 3 4 5 6 7 8 9 10 11 12 13 14 15 16 17 18 19 20 21 22 23 24 25 26 27 28 29 30 31 32 33 34 35 36 37 38 39 40 41 42 43 44 45 46 47 48 49 50

000
ASUS43 KMKX 300021
RWRWI

WISCONSIN REGIONAL WEATHER ROUNDUP
NATIONAL WEATHER SERVICE MILWAUKEE/SULLIVAN WI
700 PM CDT THU SEP 29 2016

NOTE: "FAIR" INDICATES FEW OR NO CLOUDS BELOW 12,000 FEET WITH NO
SIGNIFICANT WEATHER AND/OR OBSTRUCTIONS TO VISIBILITY.

WIZ001-002-006>008-014>016-023>028-300100-
NORTHWEST WISCONSIN

CITY           SKY/WX    TMP DP  RH WIND       PRES   REMARKS
SUPERIOR ARPT  CLEAR     52  51  95 NE7       30.46F
6HR MIN TEMP:  52; 6HR MAX TEMP:  60;

ASHLAND        MOCLDY    52  50  93 E10       30.47F
6HR MIN TEMP:  52; 6HR MAX TEMP:  61;

HAYWARD        CLEAR     55  50  83 NE8       30.44S
6HR MIN TEMP:  55; 6HR MAX TEMP:  66;

SIREN          CLEAR     60  51  71 E3        30.42S
6HR MIN TEMP:  60; 6HR MAX TEMP:  66;

CUMBERLAND     CLEAR     59  50  72 N5        30.41S
RICE LAKE      CLEAR     62  51  68 N8        30.41S
6HR MIN TEMP:  62; 6HR MAX TEMP:  70;

CHETEK         NOT AVBL
LADYSMITH      CLEAR     61  53  75 N9        30.42S
6HR MIN TEMP:  61; 6HR MAX TEMP:  70;

EAU CLAIRE     CLEAR     63  52  67 N5        30.37S
6HR MIN TEMP:  63; 6HR MAX TEMP:  71;

MENOMONIE      CLEAR     66  51  58 N3        30.38F
6HR MIN TEMP:  66; 6HR MAX TEMP:  73;

NEW RICHMOND   CLEAR     59  50  72 N5        30.40S
6HR MIN TEMP:  59; 6HR MAX TEMP:  69;

OSCEOLA        CLEAR     61  52  72 N3        30.43S
6HR MIN TEMP:  61; 6HR MAX TEMP:  68;

$$

WIZ003>005-009-010-017-018-300100-
NORTH CENTRAL WISCONSIN

CITY           SKY/WX    TMP DP  RH WIND       PRES   REMARKS
MANITOWISH WTR NOT AVBL
ARBOR VITAE    CLEAR     57  53  85 NE3       30.44S
6HR MIN TEMP:  57; 6HR MAX TEMP:  65;

WOODRUFF       CLEAR     57  53  85 NE3       30.44S
6HR MIN TEMP:  57; 6HR MAX TEMP:  65;

RHINELANDER    CLEAR     60  55  83 N6        30.43R
6HR MIN TEMP:  60; 6HR MAX TEMP:  69;

EAGLE RIVER    CLEAR     56  53  88 N6        30.44R
6HR MIN TEMP:  56; 6HR MAX TEMP:  66;

LAND O LAKES   CLEAR     56  52  86 NE5       30.46S
6HR MIN TEMP:  56; 6HR MAX TEMP:  64; 6HR PCP:  0.01;

PHILLIPS       CLEAR     59  53  79 NE7       30.41S
6HR MIN TEMP:  59; 6HR MAX TEMP:  67;

TOMAHAWK       CLEAR     59  53  79 CALM      30.41S
6HR MIN TEMP:  59; 6HR MAX TEMP:  68;

MEDFORD        CLEAR     58  51  78 N5        30.39S
6HR MIN TEMP:  58; 6HR MAX TEMP:  69;

MERRILL        PTCLDY    61  54  76 N5        30.39S
6HR MIN TEMP:  61; 6HR MAX TEMP:  71;

$$

WIZ029-030-035-036-043>047-300100-
CENTRAL WISCONSIN

CITY           SKY/WX    TMP DP  RH WIND       PRES   REMARKS
WAUSAU         CLEAR     64  50  60 NE6       30.36S
6HR MIN TEMP:  64; 6HR MAX TEMP:  71;

MOSINEE        PTCLDY    63  52  67 N6        30.38S
MARSHFIELD     CLEAR     65  49  56 NE7       30.36S
6HR MIN TEMP:  65; 6HR MAX TEMP:  72;

STEVENS POINT  CLEAR     60  50  69 NE5       30.36S
6HR MIN TEMP:  60; 6HR MAX TEMP:  71;

WAUPACA        CLEAR     65  46  49 CALM      30.35R
6HR MIN TEMP:  65; 6HR MAX TEMP:  74;

WAUTOMA        CLEAR     63  48  58 NE5       30.34R
6HR MIN TEMP:  63; 6HR MAX TEMP:  73;

WISC RAPIDS    CLEAR     63  50  62 NE5       30.36S
6HR MIN TEMP:  63; 6HR MAX TEMP:  74;

CAMP DOUGLAS   CLEAR     63  51  64 N3        30.33S
6HR MIN TEMP:  63; 6HR MAX TEMP:  72;

$$

WIZ011>013-019>022-031-037>040-048>050-300100-
NORTHEAST WISCONSIN

CITY           SKY/WX    TMP DP  RH WIND       PRES   REMARKS
ANTIGO         CLEAR     57  50  76 CALM      30.40R
6HR MIN TEMP:  57; 6HR MAX TEMP:  69;

SHAWANO        CLEAR     64  54  68 E3        30.36S
6HR MIN TEMP:  64; 6HR MAX TEMP:  73;

OCONTO         NOT AVBL
STURGEON BAY   NOT AVBL
GREEN BAY      CLEAR     62  54  74 NE14      30.34S
6HR MIN TEMP:  62; 6HR MAX TEMP:  69;

MANITOWOC      PTCLDY    62  56  80 MISG      30.32S
6HR MIN TEMP:  62; 6HR MAX TEMP:  67;

APPLETON       PTCLDY    63  46  55 NE13G20   30.33R
CLINTONVILLE   CLEAR     61  46  59 E3        30.35S
OSHKOSH        CLEAR     64  51  62 N16G23    30.32R
6HR MIN TEMP:  64; 6HR MAX TEMP:  69;

$$

WIZ032>034-041-042-053>061-300100-
SOUTHWEST WISCONSIN

CITY           SKY/WX    TMP DP  RH WIND       PRES   REMARKS
LA CROSSE      CLEAR     66  53  63 N6        30.34R
6HR MIN TEMP:  66; 6HR MAX TEMP:  75;

SPARTA         CLEAR     63  54  70 N3        30.35S
6HR MIN TEMP:  63; 6HR MAX TEMP:  72;

VIROQUA        CLEAR     61  51  70 N5        30.34S
6HR MIN TEMP:  61; 6HR MAX TEMP:  72;

BOSCOBEL       CLEAR     65  48  54 CALM      30.31R
6HR MIN TEMP:  65; 6HR MAX TEMP:  77;

PRAIRIE DU CHI CLEAR     66  49  54 CALM      30.30R
6HR MIN TEMP:  66; 6HR MAX TEMP:  74;

PLATTEVILLE    CLEAR     65  50  60 NE6       30.30R
6HR MIN TEMP:  65; 6HR MAX TEMP:  73;

$$

WIZ056-057-062-063-064-067-068-300100-
SOUTH CENTRAL WISCONSIN

CITY           SKY/WX    TMP DP  RH WIND       PRES   REMARKS
REEDSBURG      NOT AVBL
BARABOO/DELLS  CLEAR     62  43  49 NE5       30.32R
6HR MIN TEMP:  62; 6HR MAX TEMP:  72;

LONE ROCK      CLEAR     64  45  49 NE6       30.31R
6HR MIN TEMP:  63; 6HR MAX TEMP:  75;

MINERAL POINT  CLEAR     64  46  52 NE5       30.30R
MADISON        PTCLDY    64  52  64 NE12      30.30R
6HR MIN TEMP:  64; 6HR MAX TEMP:  72;

MIDDLETON      CLEAR     65  52  61 NE8       30.31R
6HR MIN TEMP:  65; 6HR MAX TEMP:  73;

WATERTOWN      PTCLDY    63  51  64 NE8       30.29S
6HR MIN TEMP:  63; 6HR MAX TEMP:  71;

MONROE         CLOUDY    64  50  59 NE9       30.28R
JANESVILLE     MOCLDY    66  54  63 NE15      30.27S
$$

WIZ051-052-058>065-066-070>072-300100-
SOUTHEAST WISCONSIN

CITY           SKY/WX    TMP DP  RH WIND       PRES   REMARKS
MILWAUKEE      CLOUDY    62  58  86 N16G24    30.27S
6HR MIN TEMP:  62; 6HR MAX TEMP:  66; 6HR PCP: TRACE;

WAUKESHA       MOCLDY    61  54  77 NE9G18    30.29S
MILWAUKEE/TIMM CLOUDY    63  54  72 N14G21    30.28F
RACINE         LGT RAIN  59  57  93 N17G24    30.28S
6HR MIN TEMP:  59; 6HR MAX TEMP:  63; 6HR PCP:  0.21;

BURLINGTON     CLOUDY    61  53  73 NE8G16    30.27R
6HR MIN TEMP:  61; 6HR MAX TEMP:  64;

KENOSHA        CLOUDY    61  59  93 NE12      30.26S
6HR MIN TEMP:  61; 6HR MAX TEMP:  63; 6HR PCP:  0.01;

FOND DU LAC    CLEAR     63  53  70 NE12      30.32R
6HR MIN TEMP:  63; 6HR MAX TEMP:  70;

SHEBOYGAN      PTCLDY    61  56  83 N15       30.30S
6HR MIN TEMP:  61; 6HR MAX TEMP:  67;

WEST BEND      PTCLDY    66  63  88 NE10G22   30.30S
JUNEAU         CLEAR     61  50  67 N5        30.31S
6HR MIN TEMP:  61; 6HR MAX TEMP:  71;

$$

LSZ147-162-300100-
LAKE SUPERIOR

STATION/POSITION TIME  TEMP    WIND        PRES    WAVE
                       AIR SEA DIR/SP/G            HT/PER
                 (UTC) (F)     (DEG/KT/KT) (MB)    (FT/S)
W MID LAKE BUOY  2350   55 55   80/  8/ 10 1031.7F   2/ 5
DEVILS ISLAND    0000   53      70/  8/  9 1032.3F
SAXON HARBOR     2340   57      60/  7/ 11 1031.2F
$$

LMZ867-665-643>646-300100-
LAKE MICHIGAN

STATION/POSITION TIME  TEMP    WIND        PRES    WAVE
                       AIR SEA DIR/SP/G            HT/PER
                 (UTC) (F)     (DEG/KT/KT) (MB)    (FT/S)
CHAMBERS ISLAND  2300   65      30/ 11/ 15 1027.8R
S GREEN BAY BUOY 0000   64 63   50/ 14/ 16 1027.2R
N MID LAKE BUOY  2350   66 65   90/ 19/ 21 1027.7R   3/ 4
NORTHPORT PIER   2300   65      50/  8/ 13 1027.8S
SISTER BAY       2308   66     110/  C1F1C2F2C3F3C4F4C5F5C6F6C7F7C8M1C9M2Ca!



USA.gov is the U.S. government's official web portal to all federal, state and local government web resources and services.